Terminal Aerodrome Forecast
Issued by NWS

Home | Current Version | Previous Version | Text Only | Print | Product List | Glossary On
Versions: 1 2 3 4 5 6 7 8 9 10 11 12 13 14
192
FTPA31 PHFO 282320
TAFSTU
TAF
NSTU 282320Z 2900/2924 11013KT P6SM SCT018 SCT045=

USA.gov is the U.S. government's official web portal to all federal, state and local government web resources and services.